Home   Weather   Helsingborg   Past weeks

Flag for Sweden Past Weather in Helsingborg, Sweden — Yesterday and Last 2 Weeks

Now
63 °F

Rain. Broken clouds.


Feels Like: 63 °F
Forecast: 57 / 61 °F
Wind: 16 mph from Southwest

Location: Ljungbyhed

Current Time: Sep 29, 2016 at 3:37:29 PM

Latest Report: Sep 29, 2016 at 3:20 PM


Visibility: 2 mi

Pressure: 29.59 "Hg

Humidity: 94%

Dew Point: 61 °F

Location of HelsingborgLocation

Past Weather in Helsingborg — Graph

°F

Helsingborg Temperature Yesterday

Maximum temperature yesterday: 64 °F (at 10:20 AM)
Minimum temperature yesterday: 59 °F (at 12:20 AM)
Average temperature yesterday: 62 °F

High & Low Weather Summary for the Past Weeks

 TemperatureHumidityPressure
High81 °F (Sep 14, 2:20 PM)100% (Sep 14, 11:20 PM)30.30 "Hg (Sep 14, 11:20 PM)
Low37 °F (Sep 18, 5:50 AM)43% (Sep 19, 12:20 PM)29.59 "Hg (Sep 29, 1:50 PM)
Average57 °F80%30.12 "Hg
* Reported Sep 14 2:20 PM — Sep 29 2:20 PM, Helsingborg, Weather by CustomWeather, © 2016

Note: Actual official high and low records may vary slightly from our data, if they occured in-between our weather recording intervals... More about our weather records

Advertising

Helsingborg Weather History for the Previous 24 Hours

Scroll right to see more
 ConditionsComfort  
Time TempWeatherWind HumidityBarometerVisibility
2:20 PM
Thu, Sep 29
64 °FPartly sunny.20 mph83%29.59 "HgN/A
1:50 PM66 °FBroken clouds.20 mph83%29.59 "HgN/A
1:20 PM66 °FBroken clouds.20 mph83%29.62 "HgN/A
12:50 PM66 °FScattered clouds.17 mph88%29.62 "HgN/A
12:20 PM64 °FRain showers. Broken clouds.17 mph88%29.65 "HgN/A
11:50 AM66 °FBroken clouds.16 mph88%29.65 "HgN/A
11:20 AM66 °FScattered clouds.18 mph88%29.68 "HgN/A
10:50 AM64 °FPartly sunny.17 mph94%29.68 "HgN/A
10:20 AM64 °FBroken clouds.17 mph94%29.68 "HgN/A
9:50 AM64 °FBroken clouds.20 mph88%29.71 "HgN/A
9:20 AM63 °FFog.17 mph94%29.71 "Hg4 mi
8:50 AM63 °FFog.18 mph94%29.71 "Hg4 mi
8:20 AM63 °FFog.17 mph94%29.71 "Hg4 mi
7:50 AM63 °FLight rain. Mostly cloudy.15 mph94%29.74 "Hg2 mi
7:20 AM63 °FFog.14 mph94%29.74 "Hg1 mi
6:50 AM63 °FFog.13 mph88%29.77 "Hg6 mi
6:20 AM63 °FPartly cloudy.13 mph88%29.77 "HgN/A
5:50 AM61 °FMostly cloudy.15 mph88%29.77 "HgN/A
5:20 AM59 °FFog.13 mph94%29.80 "Hg4 mi
4:50 AM59 °FDrizzle. Overcast.12 mph88%29.83 "Hg6 mi
4:20 AM59 °FMostly cloudy.8 mph88%29.83 "HgN/A
3:50 AM59 °FOvercast.6 mph88%29.86 "HgN/A
3:20 AM59 °FOvercast.6 mph88%29.89 "HgN/A
2:50 AM57 °FPassing clouds.7 mph94%29.89 "Hg2 mi
2:20 AM59 °FDrizzle. Overcast.8 mph82%29.89 "HgN/A
1:50 AM59 °FLight rain. Mostly cloudy.9 mph82%29.89 "HgN/A
1:20 AM59 °FMostly cloudy.9 mph77%29.89 "HgN/A
12:50 AM59 °FOvercast.10 mph77%29.89 "HgN/A
12:20 AM59 °FPartly cloudy.12 mph77%29.89 "HgN/A
11:50 PM
Wed, Sep 28
59 °FPartly cloudy.12 mph77%29.89 "HgN/A
11:20 PM59 °FPartly cloudy.15 mph77%29.92 "HgN/A
10:50 PM61 °FPartly cloudy.16 mph72%29.89 "HgN/A
10:20 PM61 °FPartly cloudy.16 mph72%29.89 "HgN/A
9:50 PM61 °FPartly cloudy.17 mph68%29.89 "HgN/A
9:20 PM61 °FPassing clouds.18 mph68%29.89 "HgN/A
8:50 PM61 °FPassing clouds.17 mph68%29.89 "HgN/A
8:20 PM61 °FPartly cloudy.16 mph72%29.89 "HgN/A
7:20 PM61 °FPartly cloudy.15 mph72%29.86 "HgN/A
6:50 PM61 °FPartly cloudy.16 mph72%29.86 "HgN/A
6:20 PM61 °FBroken clouds.14 mph72%29.86 "HgN/A
5:50 PM63 °FPartly sunny.21 mph68%29.86 "HgN/A
5:20 PM63 °FPartly sunny.16 mph64%29.86 "HgN/A
4:50 PM63 °FPartly sunny.18 mph68%29.86 "HgN/A
4:20 PM63 °FBroken clouds.26 mph64%29.86 "HgN/A
3:50 PM64 °FBroken clouds.21 mph64%29.86 "HgN/A
3:20 PM64 °FBroken clouds.22 mph68%29.83 "HgN/A
Weather by CustomWeather, © 2016

See weather overviewHow to use our weather pages